Air Force Academy, CO

4:33 AM MDT on July 28, 2017 (GMT -0600)
Usaf Academy

Weather History for KAFF - November, 2012

Change the Weather History Date:

Sunday, November 25, 2012

  Actual Average Record
Temperature  
Mean Temperature 42 °F -  
Max Temperature 56 °F 44 °F 60 °F (2015)
Min Temperature 29 °F 22 °F 3 °F (2010)
Degree Days  
Heating Degree Days 22    
Moisture  
Dew Point 5 °F    
Average Humidity 23    
Maximum Humidity 50    
Minimum Humidity 13    
Precipitation  
Precipitation 0.00 in - - ()
Sea Level Pressure  
Sea Level Pressure 29.87 in    
Wind  
Wind Speed 7 mph (East)    
Max Wind Speed 14 mph    
Max Gust Speed 23 mph    
Visibility 10 miles    
Events      
Averages and records for this station are not official NWS values.
T = Trace of Precipitation, MM = Missing Value Source: NWS Daily Summary

Daily Weather History Graph

Daily Weather History Graph

Search for Another Location

Airport or City:

Trip Planner

Search our weather history database for the weather conditions in past years. The results will help you decide how hot, cold, wet, or windy it might be!

Date:

Astronomy

Nov. 25, 2012 Rise Set
Actual Time 6:53 AM MST 4:39 PM MST
Civil Twilight 6:24 AM MST 5:08 PM MST
Nautical Twilight 5:51 AM MST 5:41 PM MST
Astronomical Twilight 5:19 AM MST 6:13 PM MST
Moon 2:56 PM MST (11/25) 4:10 AM MST (11/25)
Length of Visible Light 10h 43m
Length of Day
9h 45m
Waxing Gibbous, 93% of the Moon is Illuminated
Nov 25
Waxing Gibbous
Nov 28
Full
Dec 6
Last Quarter
Dec 13
New
Dec 19
First Quarter

Hourly Weather History & Observations

Time (MST) Temp. Windchill Dew Point Humidity Pressure Visibility Wind Dir Wind Speed Gust Speed Precip Events Conditions
12:58 AM 42.1 °F 38.4 °F 0.5 °F 18% 29.84 in 10.0 mi North 5.8 mph - N/A   Clear
1:58 AM 41.7 °F 38.8 °F 0.7 °F 18% 29.83 in 10.0 mi Variable 4.6 mph - N/A   Clear
2:58 AM 41.2 °F 39.2 °F -0.0 °F 18% 29.85 in 10.0 mi NE 3.5 mph - N/A   Clear
3:29 AM 44.6 °F 38.8 °F -0.4 °F 15% 29.98 in 10.0 mi SW 11.5 mph 23.0 mph N/A   Clear
3:58 AM 43.0 °F 40.3 °F 0.3 °F 17% 29.83 in 10.0 mi West 4.6 mph - N/A   Clear
4:58 AM 37.2 °F 31.2 °F 0.1 °F 21% 29.88 in 10.0 mi East 8.1 mph - N/A   Clear
5:58 AM 31.8 °F 27.3 °F -0.4 °F 25% 29.96 in 10.0 mi East 4.6 mph - N/A   Clear
6:58 AM 33.8 °F 29.6 °F 0.9 °F 25% 29.94 in 10.0 mi Variable 4.6 mph - N/A   Clear
7:58 AM 39.4 °F - 5.0 °F 24% 29.94 in 10.0 mi South 2.3 mph - N/A   Clear
8:58 AM 48.6 °F - 8.2 °F 20% 29.91 in 10.0 mi South 9.2 mph - N/A   Clear
9:58 AM 50.4 °F - 8.4 °F 18% 29.86 in 10.0 mi SSE 4.6 mph - N/A   Clear
10:58 AM 53.4 °F - 8.8 °F 17% 29.83 in 10.0 mi SSE 8.1 mph - N/A   Clear
11:58 AM 53.4 °F - 7.9 °F 16% 29.81 in 10.0 mi SSE 11.5 mph - N/A   Clear
12:58 PM 55.8 °F - 5.7 °F 13% 29.73 in 10.0 mi SSE 11.5 mph - N/A   Clear
1:58 PM 52.5 °F - 6.3 °F 15% 29.76 in 10.0 mi ESE 6.9 mph - N/A   Clear
2:58 PM 56.1 °F - 7.7 °F 14% 29.73 in 10.0 mi South 6.9 mph - N/A   Clear
3:58 PM 54.7 °F - 4.8 °F 13% 29.73 in 10.0 mi South 10.4 mph - N/A   Clear
4:58 PM 49.6 °F - 5.5 °F 17% 29.81 in 10.0 mi ENE 5.8 mph - N/A   Clear
5:58 PM 37.8 °F 32.5 °F 6.8 °F 28% 29.91 in 10.0 mi NNW 6.9 mph - N/A   Clear
6:58 PM 34.0 °F 28.0 °F 3.9 °F 28% 29.95 in 10.0 mi NNW 6.9 mph - N/A   Clear
7:58 PM 29.1 °F 20.0 °F 5.5 °F 37% 29.94 in 10.0 mi North 10.4 mph - N/A   Clear
8:58 PM 39.6 °F 31.7 °F 11.1 °F 31% 29.89 in 10.0 mi NNW 13.8 mph - N/A   Clear
9:58 PM 34.5 °F 25.7 °F 11.5 °F 39% 29.92 in 10.0 mi NNW 12.7 mph - N/A   Clear
10:58 PM 34.3 °F 26.5 °F 13.8 °F 43% 29.91 in 10.0 mi NNW 10.4 mph - N/A   Clear
11:58 PM 30.9 °F 22.8 °F 14.4 °F 50% 29.94 in 10.0 mi NNW 9.2 mph - N/A   Clear